Starlink 3934

operational
NORAD ID: 52675 Int'l Des: 2022-053 Owner: SPXS Country: US Constellation: starlink
LEOCIRCULAR

About Starlink 3934

Description loading...

Live Position

Loading 3D Globe...

Upcoming Passes

Altitude History

Altitude vs Time

uPlot chart will show altitude changes over time

Two-Line Element Set

1 52675U 22053V 25350.76693708 .00000358 00000-0 40600-4 0 9998
2 52675 53.2178 156.3731 0001307 90.8769 269.2373 15.08837082198652
Epoch: Dec 16, 2025 • Age: 12 hours

Current Status

Altitude 549.7 km
Velocity 7.59 km/s
Sub-Earth Point -30.75°S, 176.68°E
Launch Date May 18, 2022
Age 3.5 years
Type internet

Technical Details

Classification Payload
Mass 297.00 kg
Dry Mass 275.00 kg
Total Mass 297.00 kg
Length 0.20 m
Diameter 2.80 m
Span 9.00 m
Shape Box + pan
Manufacturer SPXS
Bus Type Starlink
Phase Status In Orbit
Owner/State SPXS/US

Large Constellations

Loading constellations...